Change the Weather History Date:

Wednesday, February 1, 2012

  Actual Average Record
Temperature  
Mean Temperature 45 °F 27 °F  
Max Temperature 53 °F 35 °F 63 °F (1989)
Min Temperature 37 °F 19 °F -3 °F (1971)
Degree Days  
Heating Degree Days 20 38  
Month to date heating degree days 20 38  
Since 1 July heating degree days 3001 3431  
Cooling Degree Days 0 0  
Month to date cooling degree days 0 0  
Year to date cooling degree days 0 0  
Moisture  
Dew Point 42 °F    
Average Humidity 78    
Maximum Humidity 93    
Minimum Humidity 63    
Precipitation  
Precipitation 0.11 in 0.08 in 0.93 in (2014)
Month to date precipitation 0.11 0.08  
Year to date precipitation 2.48 2.31  
Sea Level Pressure  
Sea Level Pressure 30.03 in    
Wind  
Wind Speed 8 mph (WNW)    
Max Wind Speed 20 mph    
Max Gust Speed 26 mph    
Visibility 8 miles    
Events Rain    
T = Trace of Precipitation, MM = Missing Value Source: NWS Daily Summary

Daily Weather History Graph

Daily Weather History Graph

Search for Another Location

Airport or City:

Trip Planner

Search our weather history database for the weather conditions in past years. The results will help you decide how hot, cold, wet, or windy it might be!

Date:

Astronomy

Feb. 01, 2012 Rise Set
Actual Time 7:51 AM EST 5:59 PM EST
Civil Twilight 7:22 AM EST 6:28 PM EST
Nautical Twilight 6:49 AM EST 7:01 PM EST
Astronomical Twilight 6:17 AM EST 7:32 PM EST
Moon 12:27 PM EST (2/1) 2:36 AM EST (2/1)
Length of Visible Light 11h 06m
Length of Day
10h 08m
Waxing Gibbous, 64% of the Moon is Illuminated
Feb 1
Waxing Gibbous
Feb 7
Full
Feb 14
Last Quarter
Feb 21
New
Feb 29
First Quarter

Hourly Weather History & Observations

Time (EST) Temp. Windchill Dew Point Humidity Pressure Visibility Wind Dir Wind Speed Gust Speed Precip Events Conditions
1:16 AM 53.6 °F - 48.2 °F 82% 29.93 in 6.0 mi SW 12.7 mph 21.9 mph 0.01 in Rain Light Rain
1:53 AM 52.0 °F - 48.9 °F 89% 29.93 in 5.0 mi SW 15.0 mph 24.2 mph 0.04 in Rain Light Rain
2:00 AM 51.8 °F - 48.2 °F 88% 29.94 in 3.0 mi SW 10.4 mph 24.2 mph 0.02 in Rain Rain
2:32 AM 51.8 °F - 48.2 °F 88% 29.94 in 10.0 mi SW 11.5 mph - 0.04 in   Overcast
2:39 AM 51.8 °F - 48.2 °F 88% 29.94 in 10.0 mi SW 10.4 mph 19.6 mph 0.04 in   Overcast
4:39 AM 53.6 °F - 48.2 °F 82% 29.97 in 10.0 mi West 11.5 mph - 0.01 in   Overcast
4:46 AM 53.6 °F - 48.2 °F 82% 29.98 in 9.0 mi West 11.5 mph - 0.01 in   Overcast
4:53 AM 53.1 °F - 48.9 °F 86% 29.97 in 9.0 mi West 10.4 mph - 0.01 in   Overcast
5:10 AM 51.8 °F - 48.2 °F 88% 29.99 in 9.0 mi West 11.5 mph - N/A   Mostly Cloudy
6:53 AM 46.9 °F - 45.0 °F 93% 30.02 in 5.0 mi West 6.9 mph - N/A   Clear
7:53 AM 44.1 °F 40.8 °F 41.0 °F 89% 30.04 in 6.0 mi West 5.8 mph - N/A   Clear
8:53 AM 45.0 °F 40.1 °F 42.1 °F 90% 30.06 in 5.0 mi WNW 9.2 mph - N/A   Clear
9:27 AM 44.6 °F 39.2 °F 39.2 °F 81% 30.08 in 8.0 mi WNW 10.4 mph - N/A   Partly Cloudy
9:53 AM 44.1 °F 38.6 °F 37.9 °F 79% 30.08 in 10.0 mi WNW 10.4 mph - N/A   Partly Cloudy
10:53 AM 46.0 °F 42.5 °F 39.0 °F 76% 30.08 in 10.0 mi West 6.9 mph - N/A   Clear
11:53 AM 48.0 °F - 39.9 °F 74% 30.08 in 10.0 mi WNW 5.8 mph - N/A   Clear
1:53 PM 50.0 °F - 39.9 °F 68% 30.05 in 10.0 mi NW 5.8 mph - N/A   Clear
2:53 PM 52.0 °F - 39.9 °F 63% 30.04 in 10.0 mi WNW 6.9 mph - N/A   Clear
3:53 PM 51.1 °F - 39.9 °F 66% 30.05 in 10.0 mi NW 5.8 mph - N/A   Clear
5:53 PM 46.9 °F - 41.0 °F 80% 30.07 in 10.0 mi NNW 5.8 mph - N/A   Clear
6:53 PM 44.1 °F 40.1 °F 39.0 °F 82% 30.09 in 10.0 mi North 6.9 mph - N/A   Clear
7:53 PM 42.1 °F 36.6 °F 37.9 °F 85% 30.06 in 5.0 mi NE 9.2 mph - N/A   Clear
8:53 PM 39.9 °F 34.5 °F 36.0 °F 86% 30.09 in 5.0 mi NNE 8.1 mph - N/A   Clear
9:53 PM 37.9 °F 33.5 °F 35.1 °F 89% 30.10 in 5.0 mi North 5.8 mph - N/A   Clear
10:53 PM 37.9 °F 33.5 °F 34.0 °F 86% 30.11 in 5.0 mi NNE 5.8 mph - N/A   Clear
11:53 PM 37.0 °F 34.5 °F 34.0 °F 89% 30.12 in 5.0 mi NNE 3.5 mph - N/A   Clear